This is the latest recevied weather packets stored in our database for station/object DG5TS-10. If no packets are shown the sender has not sent any weather packets the latest 10 day(s).
| Time | Temp. | Humidity | Pressure | Rain* | Wind** | Luminosity | Snow |
|---|---|---|---|---|---|---|---|
| 1777649088 | 38.89° C | 9% | 1026.3 hPa | - | - | - | - |
| 1777648187 | 39.44° C | 9% | 1026.5 hPa | - | - | - | - |
| 1777647287 | 39.44° C | 9% | 1026.6 hPa | - | - | - | - |
| 1777646387 | 40° C | 8% | 1026.9 hPa | - | - | - | - |
| 1777645487 | 39.44° C | 9% | 1027 hPa | - | - | - | - |
| 1777644587 | 40° C | 9% | 1027.1 hPa | - | - | - | - |
| 1777643687 | 38.33° C | 10% | 1027.1 hPa | - | - | - | - |
| 1777642786 | 31.67° C | 14% | 1027.2 hPa | - | - | - | - |
| 1777641886 | 32.22° C | 14% | 1027.5 hPa | - | - | - | - |
| 1777640986 | 31.11° C | 15% | 1027.7 hPa | - | - | - | - |
| 1777640086 | 30.56° C | 16% | 1027.8 hPa | - | - | - | - |
| 1777639186 | 28.89° C | 17% | 1028.1 hPa | - | - | - | - |
| 1777638285 | 28.89° C | 16% | 1028.2 hPa | - | - | - | - |
| 1777637385 | 28.33° C | 17% | 1028.5 hPa | - | - | - | - |
| 1777636485 | 27.22° C | 17% | 1028.7 hPa | - | - | - | - |
| 1777635585 | 27.22° C | 18% | 1029 hPa | - | - | - | - |
| 1777634685 | 26.67° C | 18% | 1029 hPa | - | - | - | - |
| 1777633785 | 26.11° C | 18% | 1029.1 hPa | - | - | - | - |
| 1777632885 | 25° C | 18% | 1029.2 hPa | - | - | - | - |
| 1777631985 | 23.89° C | 19% | 1029.5 hPa | - | - | - | - |
| 1777631085 | 23.89° C | 19% | 1029.6 hPa | - | - | - | - |
| 1777630184 | 25° C | 18% | 1029.8 hPa | - | - | - | - |
| 1777629284 | 22.78° C | 20% | 1029.9 hPa | - | - | - | - |
| 1777628384 | 21.11° C | 22% | 1030 hPa | - | - | - | - |
| 1777627484 | 20.56° C | 23% | 1030.2 hPa | - | - | - | - |
* Rain since midnight (hover to see other rain measurements)
** Current wind speed in m/s (hover to see current wind gust speed)